This is the latest recevied weather packets stored in our database for station/object KG5WBN. If no packets are shown the sender has not sent any weather packets the latest 10 day(s).
| Time | Temp. | Humidity | Pressure | Rain* | Wind** | Luminosity | Snow |
|---|---|---|---|---|---|---|---|
| 1788129386 | 30° C | 52% | 1013.9 hPa | 0 mm | - | 163 W/m² | - |
| 1788129081 | 30.56° C | 51% | 1014.2 hPa | 0 mm | - | 149 W/m² | - |
| 1788128781 | 30.56° C | 51% | 1014.2 hPa | 0 mm | - | 149 W/m² | - |
| 1788128477 | 30° C | 51% | 1013.9 hPa | 0 mm | - | 168 W/m² | - |
| 1788128172 | 30° C | 52% | 1014.2 hPa | 0 mm | - | 109 W/m² | - |
| 1788127868 | 30° C | 52% | 1014.2 hPa | 0 mm | - | 109 W/m² | - |
| 1788127563 | 30° C | 50% | 1014.2 hPa | 0 mm | - | 128 W/m² | - |
| 1788127262 | 30° C | 49% | 1014.2 hPa | 0 mm | - | 128 W/m² | - |
| 1788126961 | 30° C | 51% | 1014.2 hPa | 0 mm | - | 134 W/m² | - |
| 1788126656 | 30° C | 51% | 1013.9 hPa | 0 mm | - | 135 W/m² | - |
| 1788126351 | 30° C | 51% | 1014.2 hPa | 0 mm | - | 138 W/m² | - |
| 1788126045 | 30° C | 49% | 1014.2 hPa | 0 mm | - | 153 W/m² | - |
| 1788125745 | 30° C | 49% | 1014.2 hPa | 0 mm | - | 153 W/m² | - |
| 1788125441 | 31.11° C | 49% | 1014.2 hPa | 0 mm | - | 184 W/m² | - |
| 1788125136 | 31.11° C | 49% | 1014.2 hPa | 0 mm | - | 184 W/m² | - |
| 1788124826 | 31.11° C | 51% | 1014.2 hPa | 0 mm | - | 189 W/m² | - |
| 1788124520 | 31.11° C | 51% | 1014.2 hPa | 0 mm | - | 189 W/m² | - |
| 1788124215 | 30.56° C | 49% | 1014.2 hPa | 0 mm | - | 198 W/m² | - |
| 1788123914 | 30.56° C | 49% | 1014.2 hPa | 0 mm | - | 200 W/m² | - |
| 1788123270 | 31.11° C | 50% | 1014.2 hPa | 0 mm | - | 209 W/m² | - |
| 1788122966 | 31.11° C | 50% | 1014.2 hPa | 0 mm | - | 209 W/m² | - |
| 1788122665 | 30.56° C | 51% | 1014.2 hPa | 0 mm | - | 252 W/m² | - |
| 1788122360 | 30.56° C | 51% | 1014.2 hPa | 0 mm | - | 252 W/m² | - |
| 1788122056 | 30.56° C | 51% | 1014.6 hPa | 0 mm | - | 132 W/m² | - |
| 1788121755 | 31.11° C | 51% | 1014.6 hPa | 0 mm | - | 189 W/m² | - |
* Rain latest hour (hover to see other rain measurements)
** Current wind speed in m/s (hover to see current wind gust speed)